Location: Coyote Lake
(37.1190°N, 121.5480°W)
Time: 20:13:32
(UTC-07:00)

Tiangong 2 - Visible Passes

Search period start: 19 July 2018 00:00
Search period end: 29 July 2018 00:00
Orbit: 386 x 394 km, 42.8° (Epoch: 19 July)

Date Brightness Start Highest point End Pass type
(mag) Time Alt. Az. Time Alt. Az. Time Alt. Az.
19 Jul 2.9 21:04:16 10° WNW 21:07:05 28° N 21:09:54 10° ENE visible
19 Jul 2.2 22:41:09 10° WNW 22:43:38 45° NNW 22:43:38 45° NNW visible
20 Jul 2.1 21:43:30 10° WNW 21:46:32 40° NNE 21:48:20 20° ENE visible
20 Jul 4.2 23:20:24 10° WNW 23:20:39 12° WNW 23:20:39 12° WNW visible
21 Jul 1.4 22:22:35 10° WNW 22:25:22 62° W 22:25:22 62° W visible
22 Jul 1.3 21:24:53 10° WNW 21:28:03 64° NNE 21:30:06 20° E visible
22 Jul 4.1 23:02:13 10° W 23:02:25 11° W 23:02:25 11° W visible
23 Jul 1.9 22:04:08 10° W 22:07:07 38° SSW 22:07:11 38° SSW visible
24 Jul 1.2 21:06:17 10° WNW 21:09:27 70° SSW 21:11:59 15° SE visible
25 Jul 3.0 21:45:59 10° W 21:48:21 19° SW 21:49:10 17° SSW visible
26 Jul 2.3 20:47:49 10° W 20:50:45 34° SSW 20:53:40 10° SE visible
